Probability
0 0 0 0 0 0 0 0 0 0 0 0 0 0 0 0 0 0 0 0 0 0 0 0 0 0 0 0 0 0 0 0 0 0 0 0 0 0 0 0 0 0 0
0 0 0 0 0 0 0 0 0 0 0 0 0 0 0 0 0 0 0 0 0 0 0 0 0 0 0 0 0 0 0 0 0 0 0 0 0 0 0 0 0 0 0
0 0 0 0 0 0 0 0 0 0 0 0 0 0 0 0 0 0 0 0 0 0 0 0 0 0 0 0 0 0 0 0 0 0 0 0 0 0 0 0 0 0 0
0 0 0 0 0 0 0 0 0 0 0 0 0 0 0 0 0 0 0 0 0 0 0 0 0 0 0 0 0 0 0 0 0 0 0 0 0 0 0 0 0 0 0
0 0 0 0 0 0 0 0 0 0 0 0 0 0 0 0 0 0 0 0 0 0 0 0 0 0 0 0 0 0 0 0 0 0 0 0 0 0 0 0 0 0 0
0 0 0 0 0 0 0 0 0 0 0 0 0 0 0 0 0 0 0 0 0 0 0 0 0 0 0 0 0 0 0 0 0 0 0 0 0 0 0 0 0 0 0
0 0 0 0 0 0 0 0 0 0 0 0 0 0 0 0 0 0 0 0 0 0 0 0 0 0 0 0 0 0 0 0 0 0 0 0 0 0 0 0 0 0 0
0 0 0 0 0 0 0 0 0 0 0 0 0 0 0 0 0 0 0 0 0 0 0 0 0 0 0 0 0 0 0 0 0 0 0 0 0 0 0 0 0 0 0
0 0 0 0 0 0 0 0 0 0 0 0 0 0 0 0 0 0 0 0 0 0 0 0 0 0 0 0 0 0 0 0 0 0 0 0 0 0 0 0 0 0 0
0 0 0 0 0 0 0 0 0 0 0 0 0 0 0 0 0 0 0 0 0 0 0 0 0 0 0 0 0 0 0 0 0 0 0 0 0 0 0 0 0 0 0
0 0 0 0 0 0 0 0 0 0 0 0 0 0 0 0 0 0 0 0 0 0 0 0 0 0 0 0 0 0 0 0 0 0 0 0 0 0 0 0 0 0 0
0 0 0 0 0 0 0 0 0 0 0 0 0 0 0 0 0 0 0 0 0 0 0 0 0 0 0 0 0 0 0 0 0 0 0 0 0 0 0 0 0 0 0
0 0 0 0 0 0 0 0 0 0 0 0 0 0 0 0 0 0 0 0 0 0 0 0 0 0 0 0 0 0 0 0 0 0 0 0 0 0 0 0 0 0 0
0 0 0 0 0 0 0 0 0 0 0 0 0 0 0 0 0 0 0 0 0 0 0 0 0 0 0 0 0 0 0 0 0 0 0 0 0 0 0 0 0 0 0
0 0 0 0 0 0 0 0 0 0 0 0 0 0 0 0 0 0 0 0 0 0 0 0 0 0 0 0 0 0 0 0 0 0 0 0 0 0 0 0 0 0 0
0 0 0 0 0 0 0 0 0 0 0 0 0 0 0 0 0 0 0 0 0 0 0 0 0 0 0 0 0 0 0 0 0 0 0 0 0 0 0 0 0 0 0
0 0 0 0 0 0 0 0 0 0 0 0 0 0 0 0 0 0 0 0 0 0 0 0 0 0 0 0 0 0 0 0 0 0 0 0 0 0 0 0 0 0 0
0 0 0 0 0 0 0 0 0 0 0 0 0 0 0 0 0 0 0 0 0 0 0 0 0 0 0 0 0 0 0 0 0 0 0 0 0 0 0 0 0 0 0
0 0 0 0 0 0 0 0 0 0 0 0 0 0 0 0 0 0 0 0 0 0 0 0 0 0 0 0 0 0 0 0 0 0 0 0 0 0 0 0 0 0 0
0 0 0 0 0 0 0 0 0 0 0 0 0 0 0 0 0 0 0 0 0 0 0 0 0 0 0 0 0 0 0 0 0 0 0 0 0 0 0 0 0 0 0
0 0 0 0 0 0 0 0 0 0 0 0 0 0 0 0 0 0 0 0 0 0 0 0 0 0 0 0 0 0 0 0 0 0 0 0 0 0 0 0 0 0 0
0 0 0 0 0 0 0 0 0 0 0 0 0 0 0 0 0 0 0 0 0 0 0 0 0 0 0 0 0 0 0 0 0 0 0 0 0 0 0 0 0 0 0
0 0 0 0 0 0 0 0 0 0 0 0 0 0 0 0 0 0 0 0 0 0 0 0 0 0 0 0 0 0 0 0 0 0 0 0 0 0 0 0 0 0 0
0 0 0 0 0 0 0 0 0 0 0 0 0 0 0 0 0 0 0 0 0 0 0 0 0 0 0 0 0 0 0 0 0 0 0 0 0 0 0 0 0 0 0
0 0 0 0 0 0 0 0 0 0 0 0 0 0 0 0 0 0 0 0 0 0 0 0 0 0 0 0 0 0 0 0 0 0 0 0 0 0 0 0 0 0 0
0 0 0 0 0 0 0 0 0 0 0 0 0 0 0 0 0 0 0 0 0 0 0 0 0 0 0 0 0 0 0 0 0 0 0 0 0 0 0 0 0 0 0
Wind_Speed
16 16 16 15 15 14 13 13 12 11 12 12 12 11 11 10 10 9 9 10 10 8 7 8 7 7 5 4 3 3 2 2 2 1 1 2 4 5 6 7 7 7 7
13 13 13 12 12 12 12 12 12 12 12 12 12 12 11 11 10 11 11 10 11 11 10 9 9 6 7 5 4 4 3 2 2 2 2 2 4 5 7 7 7 6 7
9 10 11 11 11 11 10 10 11 12 12 11 12 12 12 12 11 10 11 11 10 10 10 10 10 9 8 6 5 4 3 3 2 2 2 2 3 4 6 6 7 6 7
7 8 9 9 9 9 9 10 10 11 12 12 12 12 12 12 12 11 11 10 10 9 8 8 9 9 8 8 6 5 4 3 2 2 3 3 3 4 5 5 6 7 7
7 7 7 5 6 7 8 9 9 9 10 10 11 10 10 10 11 13 12 11 11 10 9 8 7 7 7 6 5 6 5 4 3 3 3 2 2 3 4 5 7 8 8
7 7 6 6 6 7 7 8 9 9 9 9 10 11 11 8 14 17 14 12 11 11 10 9 8 7 8 8 7 6 5 4 4 3 3 3 3 4 4 5 6 7 6
6 6 6 7 7 7 8 9 9 10 10 10 10 10 10 12 19 18 15 11 11 10 10 9 7 6 7 7 7 7 6 6 6 4 4 4 4 4 5 6 6 6 7
7 7 7 7 7 7 8 9 9 8 9 9 10 10 10 12 19 19 16 10 9 9 9 9 9 9 8 8 6 5 5 4 4 4 4 4 3 4 4 5 6 7 8
8 8 8 8 8 9 9 9 7 8 8 7 8 10 10 12 18 19 17 9 8 8 8 8 8 8 11 11 7 6 5 4 3 3 3 3 3 4 3 3 4 4 5
8 8 8 8 8 9 9 8 6 7 8 8 7 7 9 10 17 19 16 7 8 7 6 6 7 9 11 12 8 7 6 5 4 3 2 2 2 2 2 2 3 4 4
5 6 6 7 7 7 7 7 8 7 8 8 8 7 7 8 16 19 16 7 8 8 7 6 7 12 13 13 10 6 7 4 4 3 3 2 2 2 2 2 2 3 4
6 6 6 6 6 6 8 8 8 9 9 9 8 7 5 5 9 14 16 11 9 7 7 6 6 12 12 12 9 8 8 5 3 3 3 3 3 3 2 2 3 4 5
6 6 6 6 5 6 8 9 8 8 8 8 8 8 7 6 8 13 14 13 13 6 5 8 9 11 11 9 10 9 6 4 4 4 5 4 3 2 2 2 3 3 5
6 6 6 6 6 6 6 7 7 8 8 8 8 8 7 7 7 8 8 8 10 8 6 6 10 10 8 6 5 6 5 5 5 5 4 3 2 2 3 2 2 2 3
5 5 5 5 6 6 5 5 6 5 6 8 8 8 10 10 12 15 11 9 8 8 7 5 5 6 6 6 5 5 5 5 5 4 4 4 4 3 3 2 2 2 3
5 5 4 4 4 5 5 3 5 5 6 7 7 7 5 6 12 17 17 15 14 14 9 6 7 8 8 8 7 7 6 6 6 5 5 5 4 4 3 3 3 3 4
4 4 4 4 4 5 5 5 4 4 6 8 9 11 10 10 13 16 16 15 14 15 8 7 8 8 8 8 7 7 7 6 6 6 6 5 5 4 4 4 3 4 4
2 3 3 4 4 4 5 5 5 5 5 4 6 10 11 12 13 14 14 12 10 11 9 9 9 8 8 8 8 7 6 6 6 6 6 5 5 5 5 5 4 5 4
1 1 2 2 3 3 4 4 4 5 5 4 3 5 8 9 10 13 13 9 9 10 9 9 8 8 7 7 7 7 7 7 7 6 6 6 6 6 5 5 5 5 4
0 1 1 2 2 3 3 4 4 4 5 5 5 5 5 5 6 8 9 9 9 9 9 9 8 8 7 7 7 7 7 7 7 7 7 6 6 6 6 6 5 5 5
0 0 1 1 2 2 3 3 4 4 5 5 5 5 8 7 7 9 8 9 9 9 9 8 7 7 7 7 7 8 9 7 7 7 7 7 7 6 6 6 6 5 5
1 0 1 1 1 2 2 3 3 4 5 5 4 4 9 6 6 7 8 8 8 7 7 7 7 7 7 7 8 8 8 9 8 8 7 7 7 7 6 6 6 5 5
1 1 1 1 1 2 2 3 3 4 5 5 4 4 5 6 6 7 7 7 6 6 6 6 7 6 6 6 7 8 9 9 8 8 8 8 7 7 7 7 8 6 6
1 1 1 2 2 2 3 3 4 4 5 5 5 5 6 6 7 7 7 6 6 6 6 6 7 9 10 8 7 7 8 7 7 8 11 9 8 7 7 7 8 8 7
1 1 2 2 2 3 3 4 4 5 5 5 5 6 6 6 7 7 7 6 7 7 8 8 7 8 11 12 10 9 10 12 10 8 8 8 9 9 8 8 7 7 7
2 2 2 2 3 3 4 4 5 5 5 5 6 6 6 6 7 7 6 6 6 7 7 7 9 10 11 10 12 12 12 13 13 12 9 8 9 8 9 7 9 8 8
Wind_Direction
215 216 214 213 210 208 206 201 192 182 178 177 173 167 165 163 159 156 153 153 149 145 147 148 143 143 142 142 144 152 166 205 229 221 255 316 319 328 331 332 329 332 333
217 216 214 211 206 204 201 193 182 179 177 175 169 165 163 161 160 159 155 158 157 155 154 151 148 149 150 150 153 158 162 180 220 240 260 293 303 320 326 326 327 326 327
215 212 209 204 202 199 191 180 176 174 169 168 165 166 165 162 161 161 157 158 159 157 158 158 156 158 160 160 160 161 162 172 201 232 264 280 293 315 323 320 323 323 325
208 207 205 200 196 187 174 169 171 170 168 168 168 165 163 159 157 155 152 151 150 150 153 156 159 165 165 163 164 167 168 177 195 229 255 275 289 315 318 326 327 331 326
198 201 201 183 174 164 161 161 161 163 166 162 157 153 153 155 159 157 153 152 150 148 150 155 160 159 159 163 166 171 176 184 197 225 249 271 294 320 327 327 320 322 319
195 195 180 164 158 159 157 153 153 154 153 151 155 154 157 161 160 158 153 153 153 155 155 155 155 160 165 172 179 185 190 197 206 226 244 266 290 306 314 317 319 327 321
185 176 167 163 162 161 155 154 157 157 154 155 155 156 158 158 159 158 154 151 155 159 159 159 161 169 171 173 181 189 202 219 227 236 251 263 285 300 307 305 309 307 298
180 178 173 169 163 158 158 161 159 156 159 158 157 158 153 159 161 158 152 150 153 158 162 166 167 172 179 177 179 187 198 210 220 234 249 264 274 289 286 289 300 294 282
187 184 179 173 166 164 166 165 157 155 155 154 157 155 153 159 162 160 154 150 153 159 163 170 174 177 183 184 183 191 201 208 214 235 252 264 278 289 293 280 288 298 303
193 182 175 173 170 171 169 161 155 153 151 147 149 153 154 158 165 165 160 155 157 160 166 176 187 187 186 190 191 195 208 208 198 205 218 236 254 267 280 266 275 284 295
165 157 163 170 170 166 156 153 151 147 144 146 147 149 155 161 169 171 170 166 166 166 174 182 191 195 196 200 201 205 214 199 197 206 218 226 229 234 241 251 259 263 271
149 157 162 163 161 154 152 152 154 153 152 153 152 154 158 164 172 179 181 180 171 172 179 181 188 194 200 205 207 209 209 198 193 203 219 227 231 237 246 264 266 267 264
151 157 156 155 156 159 162 161 161 164 165 165 167 168 168 172 182 185 186 186 183 179 179 180 183 191 199 207 214 210 200 198 202 214 225 230 231 246 264 270 258 263 261
155 155 154 159 163 166 170 172 175 178 177 175 178 176 172 175 182 183 185 187 188 189 180 180 187 195 204 204 205 207 203 208 213 222 229 224 211 218 233 255 270 289 279
147 151 159 167 167 172 180 188 192 196 197 187 186 181 178 189 196 188 181 186 186 184 165 167 181 192 204 207 207 208 202 199 207 213 213 211 212 217 220 219 244 256 257
150 161 169 171 170 173 173 181 207 205 210 213 203 192 198 199 183 191 196 195 190 178 170 189 198 204 210 210 208 206 205 207 207 205 208 211 212 215 216 209 223 239 257
159 164 169 173 176 179 181 183 184 194 210 212 208 205 204 195 192 194 197 198 196 189 200 208 209 210 212 210 210 209 208 203 199 203 207 207 209 212 215 217 220 234 247
153 162 172 179 184 188 191 195 193 191 192 204 213 212 211 208 202 199 197 192 202 205 216 218 217 214 212 210 209 208 205 196 196 202 204 203 203 207 212 216 217 226 241
151 160 175 181 189 195 198 202 204 206 210 205 199 206 209 213 211 209 201 206 212 215 217 222 223 218 215 212 209 205 202 201 199 198 201 201 200 204 212 215 217 212 225
136 139 167 184 192 200 204 209 212 214 216 212 213 209 189 193 208 210 212 217 222 225 224 224 223 221 216 211 208 204 203 203 199 201 202 200 199 204 211 211 212 212 216
359 156 173 200 208 212 216 222 224 225 225 227 226 219 209 213 219 219 220 223 225 228 228 227 226 221 216 209 206 206 207 207 204 201 199 198 196 200 207 209 208 210 216
352 307 235 236 238 234 236 237 238 240 241 243 244 241 232 234 238 237 234 234 234 235 233 231 230 224 215 209 206 206 208 210 205 200 198 194 193 197 198 202 205 205 207
340 309 278 265 260 256 250 249 249 249 251 253 252 245 238 239 241 244 247 248 245 243 238 234 234 230 220 213 211 209 213 213 206 197 193 192 192 195 195 200 201 203 207
331 304 285 275 265 258 254 254 252 253 255 256 254 250 247 247 250 251 251 252 249 246 239 235 235 233 226 219 215 215 218 216 202 198 196 193 192 192 194 199 202 203 207
315 294 279 272 268 265 263 262 260 259 257 256 256 256 255 255 255 256 255 252 251 249 245 240 237 235 230 226 221 216 217 215 205 193 191 195 196 194 195 199 200 199 201
299 287 277 271 267 265 264 265 265 265 264 263 262 261 261 260 260 260 259 256 254 254 251 245 241 238 235 230 228 223 219 216 208 199 192 194 196 197 194 198 199 200 198